Location: Dover
(39.1580°N, 75.5250°W)
Time: 02:20:10
(UTC-05:00)

ISS - All Passes

Search period start: 19 December 2014 00:00
Search period end: 29 December 2014 00:00
Orbit: 404 x 415 km, 51.6° (Epoch: 19 December)

Date Brightness Start Highest point End Pass type
(mag) Time Alt. Az. Time Alt. Az. Time Alt. Az.
19 Dec - 13:08:10 10° S 13:10:52 24° SE 13:13:35 10° ENE daylight
19 Dec - 14:44:15 10° W 14:47:20 35° NNW 14:50:25 10° NE daylight
19 Dec - 16:23:27 10° NW 16:24:40 12° NNW 16:25:54 10° N daylight
19 Dec - 18:01:49 10° N 18:02:28 10° N 18:03:07 10° NNE visible
19 Dec - 19:37:05 10° NNW 19:39:56 27° NNE 19:42:46 10° E visible
19 Dec - 21:13:32 10° WNW 21:16:33 35° SW 21:19:33 10° SSE night (unlit)
20 Dec - 12:18:48 10° SSE 12:20:20 13° SE 12:21:51 10° E daylight
20 Dec - 13:53:15 10° WSW 13:56:32 63° NW 13:59:49 10° NE daylight
20 Dec - 15:31:44 10° NW 15:33:38 14° NNW 15:35:33 10° NNE daylight
20 Dec - 18:46:36 10° NNW 18:49:00 19° NNE 18:51:24 10° ENE visible
20 Dec - 20:22:37 10° NW 20:25:53 71° SW 20:29:07 10° SE night (unlit)
21 Dec - 13:02:29 10° SW 13:05:45 67° SE 13:09:02 10° ENE daylight
21 Dec - 14:40:08 10° WNW 14:42:36 19° NNW 14:45:05 10° NNE daylight
21 Dec - 17:56:07 10° NNW 17:57:58 14° NNE 17:59:48 10° NE visible
21 Dec - 19:31:50 10° NW 19:35:05 60° NE 19:38:19 10° ESE visible
21 Dec - 21:09:41 10° W 21:11:17 13° SW 21:12:54 10° SSW night (unlit)
22 Dec - 12:11:59 10° SSW 12:15:00 33° SE 12:18:00 10° ENE daylight
22 Dec - 13:48:40 10° W 13:51:35 28° NNW 13:54:29 10° NNE daylight
22 Dec - 15:28:14 10° NNW 15:29:01 11° N 15:29:48 10° N daylight
22 Dec - 17:05:40 10° N 17:06:48 11° NNE 17:07:57 10° NNE daylight
22 Dec - 18:41:07 10° NW 18:44:10 34° NNE 18:47:10 10° E visible
22 Dec - 20:17:53 10° WNW 20:20:37 25° SW 20:23:21 10° S night (unlit)
23 Dec - 11:21:57 10° S 11:24:15 18° SE 11:26:33 10° E daylight
23 Dec - 12:57:23 10° WSW 13:00:35 46° NNW 13:03:46 10° NE daylight
23 Dec - 14:36:13 10° NW 14:37:48 13° NNW 14:39:22 10° NNE daylight
23 Dec - 17:50:26 10° NNW 17:53:06 22° NNE 17:55:45 10° E visible
23 Dec - 19:26:39 10° WNW 19:29:50 48° SW 19:32:59 10° SSE visible
24 Dec - 12:06:17 10° SW 12:09:35 86° NW 12:12:54 10° NE daylight
24 Dec - 13:44:22 10° WNW 13:46:34 16° NNW 13:48:46 10° NNE daylight
24 Dec - 16:59:46 10° NNW 17:01:55 16° NNE 17:04:04 10° ENE daylight
24 Dec - 18:35:37 10° NW 18:38:54 84° NE 18:42:10 10° SE visible
25 Dec - 11:15:27 10° SSW 11:18:38 47° SE 11:21:49 10° ENE daylight
25 Dec - 12:52:38 10° W 12:55:21 23° NNW 12:58:03 10° NNE daylight
25 Dec - 16:09:06 10° NNW 16:10:38 13° NNE 16:12:09 10° NE daylight
25 Dec - 17:44:41 10° NW 17:47:51 44° NNE 17:51:00 10° ESE visible
25 Dec - 19:21:52 10° W 19:24:10 18° SW 19:26:28 10° S visible
26 Dec - 10:24:57 10° S 10:27:41 24° SE 10:30:26 10° ENE daylight
26 Dec - 12:01:04 10° W 12:04:08 35° NNW 12:07:12 10° NE daylight
26 Dec - 13:40:15 10° NNW 13:41:27 12° NNW 13:42:40 10° N daylight
26 Dec - 15:18:31 10° N 15:19:14 11° N 15:19:57 10° NNE daylight
26 Dec - 16:53:48 10° NNW 16:56:40 27° NNE 16:59:32 10° E daylight
26 Dec - 18:30:15 10° WNW 18:33:15 34° SW 18:36:14 10° SSE visible
27 Dec - 09:35:12 10° SSE 09:36:46 13° SE 09:38:20 10° E daylight
27 Dec - 11:09:41 10° WSW 11:12:57 62° NW 11:16:14 10° NE daylight
27 Dec - 12:48:08 10° NW 12:50:02 14° NNW 12:51:56 10° NNE daylight
27 Dec - 16:02:56 10° NNW 16:05:21 19° NNE 16:07:46 10° ENE daylight
27 Dec - 17:38:56 10° NW 17:42:12 70° SW 17:45:27 10° SE visible
28 Dec - 10:18:31 10° SW 10:21:47 67° SE 10:25:04 10° ENE daylight
28 Dec - 11:56:09 10° WNW 11:58:37 19° NNW 12:01:05 10° NNE daylight
28 Dec - 15:12:04 10° NNW 15:13:55 14° NNE 15:15:46 10° NE daylight
28 Dec - 16:47:46 10° NW 16:51:01 60° NE 16:54:15 10° ESE daylight
28 Dec - 18:25:35 10° W 18:27:12 13° SW 18:28:49 10° SSW visible
